Powrót do katalogu

FENGYUN 1C DEB

AktywnySSO
NORAD 32440·DEBRIS·🇨🇳 China

Wystrzelony May 10, 1999 z Taiyuan Satellite Launch Center

Loading…

Następne Przeloty (najbliższe 24 godziny)

TLE

ŚwieżeSource: Space-Track

Epoka: Sep 14, 2026, 08:36 UTC

1 32440U 99025DBC 26257.35884495  .00001721  00000-0  15956-2 0  9995
2 32440  99.1353 100.9996 0320273  98.4101 265.3478 13.62790678640384

Śledź FENGYUN 1C DEB w czasie rzeczywistym z AllMySat

Download on the App Store